Location: Beneden-Haastrecht
(52.0012°N, 4.7557°E)
Time: 14:20:33
(UTC+00:00)

ATLAS 2AS CENTAUR R/B - Pass Details

Date: 24 October 2020
Orbit: 939 x 1273 km, 63.7° (Epoch: 23 November)

Event Time Altitude Azimuth Distance (km) Brightness Sun altitude
Rises 18:14:03 0° 304° (NW) 4,214 6.8 -17.0°
Reaches altitude 10° 18:17:07 10° 311° (NW) 3,218 5.9 -17.5°
Maximum altitude 18:24:27 43° 22° (NNE) 1,620 3.5 -18.6°
Enters shadow 18:27:53 27° 74° (ENE) 2,046 3.6 -19.2°
